POPACS 3

Last updated on Thu Nov 21 2024 00:03:39 GMT+0000 (Coordinated Universal Time)

1 39270U 13055F 24324.49122668 .00013487 00000+0 35710-3 0 9999 2 39270 81.0054 126.0059 0608693 3.6535 356.8795 14.41793831576000
UTC large
Height (km)
Speed (km/s)
/
Latitude / Longitude
Inclination (degrees)
Orbital Period (minutes)
Azimuth
Elevation
Range (km)
Doppler Factor

Next 0 passes for location: London (51.5072 / 0.1276)

Sorry there are no passes over London.